Regional Weather Roundup
Issued by NWS

Home | Current Version | Previous Version | Graphics & Text | Print | Product List | Glossary On
Versions: 1 2 3 4 5 6 7 8 9 10 11 12 13 14 15 16 17 18 19 20 21 22 23 24 25 26 27 28 29 30 31 32 33 34 35 36 37 38 39 40 41 42 43 44 45 46 47 48 49 50
000
ASUS43 KTOP 280608
RWRKS

WEATHER ROUNDUP FOR KANSAS
NATIONAL WEATHER SERVICE GOODLAND KS
1200 AM CST SUN DEC 28 2014

NOTE:  "FAIR" INDICATES FEW OR NO CLOUDS BELOW 12,000 FEET WITH NO
SIGNIFICANT WEATHER AND/OR OBSTRUCTIONS TO VISIBILITY.

KSZ001>006-013>018-027>032-041>047-280700-
NORTHWEST KANSAS

CITY           SKY/WX    TMP DP  RH WIND       PRES   REMARKS
GOODLAND       PTCLDY    14   8  77 SW12      30.13F WCI   0
6HR MIN TEMP:  12; 6HR MAX TEMP:  19;

HAYS           CLEAR     16   5  62 W7        30.22F
HILL CITY      CLEAR     14   9  80 W6        30.22S
6HR MIN TEMP:  12; 6HR MAX TEMP:  22;

RUSSELL        CLEAR     17  14  88 SW8       30.22F
6HR MIN TEMP:  16; 6HR MAX TEMP:  25;

$$

KSZ061>065-074>080-084>089-280700-
SOUTHWEST KANSAS

CITY           SKY/WX    TMP DP  RH WIND       PRES   REMARKS
DODGE CITY     CLEAR     19  12  74 S7        30.23F
6HR MIN TEMP:  18; 6HR MAX TEMP:  28;

ELKHART          N/A     20  12  71 SW9         N/A
GARDEN CITY    PTCLDY    12  10  92 W7        30.21F
6HR MIN TEMP:  12; 6HR MAX TEMP:  26;

GREAT BEND     CLEAR     18  10  73 SW7       30.26F
LIBERAL        CLEAR     18   9  68 SW6       30.24F
PRATT          CLEAR     19  16  86 CALM      30.27F
$$

KSZ066>073-081>083-090>101-280700-
SOUTHEAST KANSAS

CITY           SKY/WX    TMP DP  RH WIND       PRES   REMARKS
CHANUTE        CLEAR     22  18  85 NW6       30.30S
6HR MIN TEMP:  22; 6HR MAX TEMP:  31;

COFFEYVILLE    CLEAR     24  18  77 NW7       30.30F
6HR MIN TEMP:  23; 6HR MAX TEMP:  32;

HUTCHINSON     CLEAR     15  10  80 CALM      30.28S
6HR MIN TEMP:  13; 6HR MAX TEMP:  27;

MEDICINE LODGE   N/A     17  15  92 N3        30.29F
NEWTON         CLEAR     19  10  68 CALM      30.28F
PARSONS        CLEAR     20  17  88 NW7       30.31F
6HR MIN TEMP:  20; 6HR MAX TEMP:  30;

WICHITA INTL   CLEAR     20  16  84 CALM      30.29F
6HR MIN TEMP:  19; 6HR MAX TEMP:  31;

WICHITA JABRA  CLEAR     23  16  74 CALM      30.28F
6HR MIN TEMP:  20; 6HR MAX TEMP:  27;

WICHITA MCCONL CLEAR     24  17  73 CALM      30.28F
WINFIELD       CLEAR     22  19  89 CALM      30.31S
6HR MIN TEMP:  21; 6HR MAX TEMP:  28;

$$

KSZ007>012-019>026-033>040-048>060-102>105-280700-
NORTHEAST KANSAS

CITY           SKY/WX    TMP DP  RH WIND       PRES   REMARKS
CONCORDIA      CLEAR     21  16  81 SW6       30.23F
6HR MIN TEMP:  18; 6HR MAX TEMP:  25;

EMPORIA        CLEAR     19  15  84 SW3       30.28F
6HR MIN TEMP:  18; 6HR MAX TEMP:  27;

LAWRENCE       CLEAR     17  14  88 CALM      30.30R
6HR MIN TEMP:  17; 6HR MAX TEMP:  26;

MANHATTAN      CLEAR     18  15  88 CALM      30.28F
6HR MIN TEMP:  17; 6HR MAX TEMP:  27;

MARYSVILLE     CLEAR     18  14  86 S6        30.24S
OLATHE IND     CLEAR     23  18  81 W3        30.28S
6HR MIN TEMP:  22; 6HR MAX TEMP:  28;

OLATHE EXE     CLEAR     23  18  81 W3        30.26S
6HR MIN TEMP:  22; 6HR MAX TEMP:  30;

SALINA         CLEAR     20  14  77 SW8       30.28F
6HR MIN TEMP:  16; 6HR MAX TEMP:  27;

TOPEKA BILLARD CLEAR     24  19  81 W3        30.29S
6HR MIN TEMP:  22; 6HR MAX TEMP:  30;

TOPEKA FORBES  CLEAR     19  15  84 S5        30.27S
6HR MIN TEMP:  19; 6HR MAX TEMP:  27;

$$



USA.gov is the U.S. government's official web portal to all federal, state and local government web resources and services.